This is the latest recevied weather packets stored in our database for station/object IV3CGM-13. If no packets are shown the sender has not sent any weather packets the latest 10 day(s).
| Time | Temp. | Humidity | Pressure | Rain* | Wind** | Luminosity | Snow |
|---|---|---|---|---|---|---|---|
| 1777531332 | 10.56° C | 63% | 1023.8 hPa | 0 mm | - | 82 W/m² | - |
| 1777530645 | 10.56° C | 62% | 1023.6 hPa | 0 mm | - | 69 W/m² | - |
| 1777529957 | 10.56° C | 63% | 1023.6 hPa | 0 mm | - | 97 W/m² | - |
| 1777529220 | 10.56° C | 64% | 1023.6 hPa | 0 mm | - | 207 W/m² | - |
| 1777528520 | 10° C | 65% | 1023.4 hPa | 0 mm | - | 170 W/m² | - |
| 1777527832 | 10° C | 71% | 1023.3 hPa | 0 mm | - | 137 W/m² | - |
| 1777527144 | 8.89° C | 74% | 1023.2 hPa | 0 mm | - | 77 W/m² | - |
| 1777526457 | 8.33° C | 84% | 1023.1 hPa | 0 mm | - | 58 W/m² | - |
| 1777525720 | 7.22° C | 93% | 1023 hPa | 0 mm | - | 49 W/m² | - |
| 1777525020 | 6.11° C | 96% | 1022.9 hPa | 0 mm | - | 39 W/m² | - |
| 1777524332 | 6.11° C | 99% | 1022.9 hPa | 0 mm | - | 33 W/m² | - |
| 1777523645 | 5.56° C | 98% | 1022.9 hPa | 0 mm | - | 26 W/m² | - |
| 1777522957 | 5.56° C | 97% | 1022.8 hPa | 0 mm | - | 18 W/m² | - |
| 1777522221 | 5.56° C | 97% | 1022.8 hPa | 0 mm | - | 10 W/m² | - |
| 1777521519 | 6.11° C | 95% | 1022.8 hPa | 0 mm | - | 4 W/m² | - |
| 1777520832 | 6.11° C | 93% | 1022.7 hPa | 0 mm | - | 1 W/m² | - |
| 1777520144 | 6.67° C | 92% | 1022.6 hPa | 0 mm | - | 0 W/m² | - |
| 1777519458 | 7.22° C | 87% | 1022.6 hPa | 0 mm | - | 0 W/m² | - |
| 1777518720 | 6.67° C | 92% | 1022.7 hPa | 0 mm | - | 0 W/m² | - |
| 1777518018 | 6.67° C | 96% | 1022.7 hPa | 0 mm | - | 0 W/m² | - |
| 1777517330 | 7.22° C | 92% | 1022.7 hPa | 0 mm | - | 0 W/m² | - |
| 1777516643 | 7.78° C | 88% | 1022.6 hPa | 0 mm | - | 0 W/m² | - |
| 1777515267 | 8.33° C | 98% | 1022.6 hPa | 0 mm | - | 0 W/m² | - |
| 1777514580 | 8.33° C | 99% | 1022.4 hPa | 0 mm | - | 0 W/m² | - |
| 1777513905 | 8.33° C | 99% | 1022.2 hPa | 0 mm | - | 0 W/m² | - |
* Rain latest hour (hover to see other rain measurements)
** Current wind speed in m/s (hover to see current wind gust speed)